Lid_Strength_Index
3 4 4 4 4 4 4 4 4 4 4 3 3 4 4 4 4 5 6 5 5 3 3 6 5 5 5 6 4 4 8 10 9 9 8 5 6 4 3 4 4 3 4 3 2
3 3 4 4 4 4 4 4 4 4 4 3 3 4 4 4 5 5 3 2 2 2 3 4 5 5 7 6 6 6 8 9 7 6 7 5 5 5 5 5 5 4 3 3 2
3 4 4 4 4 4 4 4 4 4 4 4 4 4 4 4 6 5 1 2 2 2 2 3 4 4 7 5 6 7 8 6 6 6 5 5 5 4 5 6 5 4 5 3 3
3 3 4 4 4 4 4 4 4 4 4 4 4 4 3 5 10 3 1 1 1 2 4 4 3 5 6 7 5 7 6 6 5 5 5 5 5 6 5 5 3 3 3 3 4
3 4 4 4 4 4 4 4 4 4 4 4 4 3 4 6 6 1 0 0 1 3 4 4 4 5 7 6 6 6 6 5 4 4 5 4 6 6 6 4 3 3 3 3 3
3 4 4 4 4 5 4 4 4 4 4 4 4 4 5 8 3 1 2 3 2 2 2 2 4 3 5 6 6 5 6 5 5 5 5 6 5 5 5 4 4 3 3 3 3
3 4 4 5 5 4 4 5 4 4 4 4 3 4 5 6 3 2 2 2 1 1 3 2 2 4 4 6 4 5 7 6 6 5 6 5 7 7 4 4 5 4 3 3 3
3 4 4 5 5 5 4 4 4 4 3 3 3 4 6 3 2 2 1 1 0 0 2 3 3 5 6 5 6 7 7 10 7 6 5 6 9 6 4 5 6 5 4 3 3
3 4 4 5 5 5 4 4 4 3 3 3 4 4 6 4 4 1 0 2 1 2 2 3 4 5 5 8 9 8 11 10 8 6 6 7 8 6 4 4 5 4 4 3 4
3 5 5 5 5 5 4 4 4 3 3 2 2 5 4 5 2 1 0 1 3 3 4 4 5 7 7 8 13 11 10 9 10 7 7 8 8 6 5 5 5 4 4 4 4
3 4 5 5 5 4 4 3 5 5 4 6 6 5 4 1 1 2 1 2 3 4 8 6 9 10 8 7 7 8 10 11 9 7 8 8 8 7 5 5 5 5 4 4 4
4 4 4 4 5 5 4 3 5 4 7 4 4 4 3 2 5 3 1 5 6 9 6 7 11 7 6 7 8 8 10 10 9 7 8 8 8 6 6 5 5 5 5 4 4
4 4 4 4 5 5 2 4 2 2 7 5 4 5 3 2 5 5 3 5 8 8 8 10 8 7 8 9 9 9 10 10 10 8 7 8 9 8 6 5 5 4 4 4 4
4 4 4 4 6 2 5 2 1 1 10 8 6 4 3 3 6 3 2 5 6 9 8 8 6 8 9 10 9 11 8 8 9 10 13 8 13 9 7 7 6 5 5 4 4
4 4 5 5 3 4 4 1 0 2 16 7 6 2 3 6 6 6 2 5 10 9 9 11 9 9 12 9 8 11 9 10 10 11 13 12 13 10 7 8 7 6 5 4 3
4 4 4 4 3 4 2 1 1 11 14 8 6 6 6 5 7 5 5 4 5 9 8 9 6 7 9 7 7 8 11 11 11 12 19 14 12 11 9 8 7 5 5 4 4
4 4 5 3 6 3 1 2 10 12 8 9 9 6 7 7 7 6 7 8 11 15 15 10 9 7 7 9 7 9 13 17 18 18 18 10 13 12 7 6 6 6 5 4 3
5 5 2 2 3 2 2 7 13 11 10 7 7 7 8 7 7 7 7 10 9 10 14 15 15 10 7 8 10 10 12 18 23 18 14 10 14 11 6 5 5 5 4 4 4
6 1 1 4 3 2 5 11 12 10 9 9 8 9 9 7 7 8 8 10 9 9 15 16 14 8 7 6 7 13 14 11 17 15 18 12 10 7 6 6 6 5 5 4 4
4 1 4 3 2 3 7 12 9 8 8 8 10 8 11 9 9 8 10 9 10 8 8 12 17 10 8 6 7 10 9 15 16 21 20 13 13 11 8 7 6 6 5 5 4
3 4 3 3 2 5 10 9 9 7 7 9 9 9 9 9 9 9 9 9 8 8 7 10 13 13 9 9 10 11 13 14 14 16 19 17 14 9 10 7 7 6 5 4 4
3 7 3 3 8 7 9 8 8 8 6 7 7 7 8 8 9 9 9 9 7 8 10 9 12 16 12 8 6 7 13 13 18 18 16 16 16 9 9 6 5 5 5 4 4
5 5 2 3 11 9 7 7 7 8 8 8 8 7 6 8 10 8 8 6 7 7 10 9 13 17 15 9 7 9 9 11 13 14 17 19 17 9 8 8 5 5 5 4 4
5 8 5 5 6 8 8 8 9 7 8 7 7 6 7 8 7 9 9 7 6 7 7 8 12 15 18 15 11 12 9 10 12 17 17 17 15 12 11 7 6 5 5 4 4
6 7 6 9 8 8 8 8 10 10 8 7 8 7 8 10 9 10 8 7 7 7 7 9 13 12 12 11 10 10 9 10 11 11 14 15 15 12 10 9 8 7 7 5 5
7 8 6 7 6 8 9 9 10 9 8 9 9 7 7 9 9 11 9 9 9 7 8 8 13 12 13 9 8 9 9 9 9 9 12 13 13 8 8 7 8 8 8 8 7
4 5 6 7 7 9 10 9 10 8 7 7 7 7 8 7 6 6 6 6 7 9 10 10 12 13 15 11 12 12 13 10 10 10 11 14 12 8 9 9 8 8 9 8 7